Weather History for KOTM - October, 2012

Change the Weather History Date:

Wednesday, October 17, 2012

  Actual Average Record
Temperature  
Mean Temperature 57 °F 52 °F  
Max Temperature 66 °F 63 °F 87 °F (1938)
Min Temperature 48 °F 41 °F 23 °F (1943)
Degree Days  
Heating Degree Days 8 13  
Month to date heating degree days 218 181  
Since 1 July heating degree days 358 302  
Cooling Degree Days 0 0  
Month to date cooling degree days 0 9  
Year to date cooling degree days 1220 936  
Growing Degree Days 6 (Base 50)    
Moisture  
Dew Point 48 °F    
Average Humidity 72    
Maximum Humidity 89    
Minimum Humidity 54    
Precipitation  
Precipitation 0.12 in 0.08 in 2.26 in (1998)
Month to date precipitation 3.44 1.56  
Year to date precipitation 22.70 32.05  
Sea Level Pressure  
Sea Level Pressure 29.43 in    
Wind  
Wind Speed 11 mph (WSW)    
Max Wind Speed 25 mph    
Max Gust Speed 36 mph    
Visibility 10 miles    
Events Rain    
T = Trace of Precipitation, MM = Missing Value Source: NWS Daily Summary

Daily Weather History Graph

Daily Weather History Graph

Search for Another Location

Airport or City:

Trip Planner

Search our weather history database for the weather conditions in past years. The results will help you decide how hot, cold, wet, or windy it might be!

Date:

Astronomy

Oct. 17, 2012 Rise Set
Actual Time 7:24 AM CDT 6:25 PM CDT
Civil Twilight 6:56 AM CDT 6:53 PM CDT
Nautical Twilight 6:24 AM CDT 7:25 PM CDT
Astronomical Twilight 5:52 AM CDT 7:56 PM CDT
Moon 10:00 AM CDT (10/17) 7:59 PM CDT (10/17)
Length of Visible Light 11h 56m
Length of Day
11h 01m
Waxing Crescent, 7% of the Moon is Illuminated
Oct 17
Waxing Crescent
Oct 21
First Quarter
Oct 29
Full
Nov 6
Last Quarter
Nov 13
New

Hourly Weather History & Observations

Time (CDT) Temp. Dew Point Humidity Pressure Visibility Wind Dir Wind Speed Gust Speed Precip Events Conditions
12:53 AM 62.1 °F 50.0 °F 65% 29.45 in 10.0 mi South 9.2 mph - N/A   Clear
1:53 AM 57.9 °F 48.9 °F 72% 29.45 in 10.0 mi South 9.2 mph - N/A   Clear
2:53 AM 59.0 °F 48.9 °F 69% 29.44 in 10.0 mi South 11.5 mph - N/A   Clear
3:53 AM 60.1 °F 48.0 °F 64% 29.42 in 10.0 mi South 10.4 mph - N/A   Clear
4:53 AM 60.1 °F 48.0 °F 64% 29.41 in 10.0 mi South 10.4 mph - N/A   Clear
5:53 AM 61.0 °F 48.9 °F 64% 29.39 in 10.0 mi South 13.8 mph - N/A   Clear
6:53 AM 61.0 °F 50.0 °F 67% 29.39 in 10.0 mi SSW 13.8 mph - N/A   Clear
7:53 AM 60.1 °F 51.1 °F 72% 29.40 in 10.0 mi SSW 11.5 mph - 0.00 in Rain Light Rain
8:53 AM 60.1 °F 53.1 °F 78% 29.40 in 10.0 mi SSW 9.2 mph - 0.01 in Rain Light Rain
9:53 AM 62.1 °F 54.0 °F 75% 29.39 in 10.0 mi SSW 13.8 mph - 0.00 in   Partly Cloudy
10:53 AM 64.0 °F 54.0 °F 70% 29.41 in 10.0 mi SW 12.7 mph - N/A   Partly Cloudy
11:34 AM 64.4 °F 53.6 °F 68% 29.43 in 10.0 mi WSW 15.0 mph - N/A   Overcast
11:50 AM 64.4 °F 53.6 °F 68% 29.43 in 10.0 mi WSW 12.7 mph - N/A   Overcast
11:53 AM 64.0 °F 53.1 °F 67% 29.42 in 10.0 mi WSW 16.1 mph - N/A   Overcast
12:53 PM 63.0 °F 50.0 °F 63% 29.42 in 10.0 mi WNW 9.2 mph 19.6 mph 0.00 in   Overcast
1:53 PM 57.9 °F 53.1 °F 84% 29.39 in 10.0 mi WNW 12.7 mph - 0.00 in   Mostly Cloudy
2:12 PM 57.2 °F 51.8 °F 82% 29.40 in 10.0 mi WNW 12.7 mph - 0.00 in Rain Light Rain
2:28 PM 55.4 °F 51.8 °F 88% 29.40 in 8.0 mi WNW 12.7 mph - 0.02 in Rain Light Rain
2:53 PM 55.9 °F 53.1 °F 90% 29.41 in 10.0 mi West 5.8 mph - 0.04 in Rain Light Rain
3:32 PM 53.6 °F 51.8 °F 94% 29.40 in 9.0 mi NW 9.2 mph - 0.05 in Rain Light Rain
3:53 PM 54.0 °F 51.1 °F 90% 29.41 in 10.0 mi West 6.9 mph - 0.05 in   Overcast
4:53 PM 55.0 °F 51.1 °F 86% 29.43 in 10.0 mi West 8.1 mph - 0.02 in   Overcast
5:53 PM 54.0 °F 50.0 °F 86% 29.44 in 10.0 mi WSW 6.9 mph - N/A   Partly Cloudy
6:53 PM 53.1 °F 44.1 °F 71% 29.46 in 10.0 mi WNW 9.2 mph - N/A   Overcast
7:53 PM 53.1 °F 37.9 °F 57% 29.48 in 10.0 mi WNW 17.3 mph 29.9 mph N/A   Overcast
8:53 PM 51.1 °F 37.9 °F 61% 29.47 in 10.0 mi West 12.7 mph - N/A   Scattered Clouds
9:53 PM 50.0 °F 36.0 °F 59% 29.47 in 10.0 mi WNW 17.3 mph 25.3 mph N/A   Scattered Clouds
10:53 PM 48.9 °F 36.0 °F 61% 29.47 in 10.0 mi West 10.4 mph - N/A   Scattered Clouds
11:53 PM 48.9 °F 33.1 °F 54% 29.47 in 10.0 mi West 13.8 mph 20.7 mph N/A   Clear